Stations météo

réclame
Mon MeteoGroup
Herrera del Duque, Espagne (8264): Température de l'air & dewpoint: 15.10.2017 12:00:00 - 21.10.2017 12:00:00 (CEST)Herrera del Duque, Espagne (8264): Vitesse du vent & gusts: 15.10.2017 12:00:00 - 21.10.2017 12:00:00 (CEST)Herrera del Duque, Espagne (8264): Direction du vent: 15.10.2017 12:00:00 - 21.10.2017 12:00:00 (CEST)Herrera del Duque, Espagne (8264): reduced air pressure: 15.10.2017 12:00:00 - 21.10.2017 12:00:00 (CEST)Herrera del Duque, Espagne (8264): visibility: 15.10.2017 12:00:00 - 21.10.2017 12:00:00 (CEST)Herrera del Duque, Espagne (8264): Ensoleillement: 15.10.2017 12:00:00 - 21.10.2017 12:00:00 (CEST)Herrera del Duque, Espagne (8264): Quantités de précipitations: 15.10.2017 12:00:00 - 21.10.2017 12:00:00 (CEST)
Date & Time tt [°C] td [°C] ff [km/h] ff [knt] fx [km/h] fx [knt] dd ppp [hPa] vv [km] sd [min] rr [mm]
21.10.2017 12:00:00 - - - - - - - - - - -
21.10.2017 11:00:00 19,6 14,8 8 4 18 10 W 1024,1 20 15 0,0
21.10.2017 10:00:00 18,9 15,5 3 2 9 5 WSW 1023,7 20 3 0,0
21.10.2017 09:00:00 17,8 15,4 4 2 16 9 W 1023,4 20 0 0,0
21.10.2017 08:00:00 17,8 15,4 3 1 9 5 SSW 1022,8 20 0 -
21.10.2017 07:00:00 18,1 15,5 4 2 13 7 SW 1022,5 20 0 0,0
21.10.2017 06:00:00 18,3 16,1 11 6 18 10 W 1022,1 20 0 0,0
21.10.2017 05:00:00 18,3 16,6 3 1 9 5 WSW 1021,8 20 0 0,0
21.10.2017 04:00:00 18,2 16,4 6 4 12 6 W 1022,1 20 0 0,0
21.10.2017 03:00:00 18,2 16,0 4 2 10 5 W 1022,3 20 0 0,0
21.10.2017 02:00:00 18,3 15,9 5 3 10 6 SW 1022,4 20 0 -
21.10.2017 01:00:00 18,8 15,4 6 3 14 8 WSW 1022,5 20 0 0,0
21.10.2017 00:00:00 19,1 15,2 4 2 18 10 W 1022,5 20 0 0,0
20.10.2017 23:00:00 19,2 14,9 4 2 10 6 SSW 1022,2 20 0 0,0
20.10.2017 22:00:00 18,6 14,9 4 2 7 4 SSE 1022,0 20 0 0,0
20.10.2017 21:00:00 18,7 14,4 3 1 10 5 S 1021,6 20 0 0,0
20.10.2017 20:00:00 19,4 14,2 7 4 16 9 W 1020,9 20 10 -
20.10.2017 19:00:00 20,5 13,9 7 4 21 11 WSW 1020,1 20 16 0,0
20.10.2017 18:00:00 21,8 13,7 11 6 25 14 SW 1019,9 20 53 0,0
20.10.2017 17:00:00 21,7 13,6 14 7 24 13 WSW 1020,1 20 55 0,0
20.10.2017 16:00:00 22,0 13,4 11 6 23 13 WSW 1020,0 20 14 0,0
20.10.2017 15:00:00 21,5 12,8 9 5 22 12 WSW 1020,3 20 8 0,0
20.10.2017 14:00:00 21,1 12,7 9 5 18 10 WSW 1020,7 20 30 -
20.10.2017 13:00:00 20,1 11,8 5 3 10 5 NNW 1021,1 20 25 0,0
20.10.2017 12:00:00 19,5 12,2 4 2 18 10 W 1021,0 20 58 0,0
20.10.2017 11:00:00 17,3 13,3 8 4 15 8 WSW 1020,8 20 7 0,0
20.10.2017 10:00:00 15,9 13,4 7 4 12 6 WSW 1020,7 7 0 0,0
20.10.2017 09:00:00 15,6 13,3 3 1 7 4 S 1019,9 5 0 0,0
20.10.2017 08:00:00 - - - - - - - - - - -
20.10.2017 07:00:00 14,7 11,9 4 2 16 8 ENE 1019,1 19 0 0,0
20.10.2017 06:00:00 15,0 12,1 2 1 9 5 SSW 1018,5 20 0 0,0
20.10.2017 05:00:00 14,6 11,8 4 2 9 5 WSW 1018,7 20 0 0,0
20.10.2017 04:00:00 14,5 11,2 3 1 11 6 WSW 1018,9 20 0 0,0
20.10.2017 03:00:00 15,0 11,2 5 3 16 8 SW 1018,6 20 0 0,0
20.10.2017 02:00:00 15,3 11,1 5 3 16 9 WSW 1018,6 20 0 -
20.10.2017 01:00:00 15,5 10,9 8 4 18 10 WSW 1018,4 20 0 0,0
20.10.2017 00:00:00 16,3 10,8 11 6 26 14 WSW 1018,0 20 0 0,0
19.10.2017 23:00:00 16,5 9,7 11 6 22 12 W 1017,3 20 0 0,0
19.10.2017 22:00:00 16,5 8,5 5 3 17 9 W 1016,6 20 0 0,0
19.10.2017 21:00:00 17,5 7,6 6 3 18 10 W 1015,7 20 0 0,0
19.10.2017 20:00:00 17,7 6,8 9 5 24 13 WSW 1015,3 20 0 -
19.10.2017 19:00:00 18,3 5,1 12 7 31 17 W 1014,5 20 28 0,0
19.10.2017 18:00:00 19,8 6,1 13 7 35 19 W 1013,4 20 59 0,0
19.10.2017 17:00:00 19,1 7,1 16 8 27 15 W 1013,3 20 47 0,0
19.10.2017 16:00:00 19,5 7,8 9 5 25 14 W 1013,4 20 54 0,0
19.10.2017 15:00:00 18,6 7,7 13 7 27 15 WSW 1013,7 20 45 0,0
19.10.2017 14:00:00 17,3 8,9 10 6 21 11 W 1014,2 20 37 -
19.10.2017 13:00:00 16,2 10,5 7 4 16 9 W 1014,8 20 48 0,0
19.10.2017 12:00:00 15,2 10,6 4 2 10 5 NNW 1014,3 20 60 0,0
19.10.2017 11:00:00 12,6 11,8 2 1 9 5 NNE 1014,6 12 11 0,0
19.10.2017 10:00:00 11,0 10,5 4 2 8 5 NNE 1014,4 3,6 0 0,0
19.10.2017 09:00:00 10,7 10,0 2 1 9 5 NW 1013,8 1,4 0 0,0
19.10.2017 08:00:00 10,8 10,2 3 1 4 2 NNE 1013,1 0,3 0 -
19.10.2017 07:00:00 10,2 9,4 4 2 7 4 NNE 1013,1 0,2 0 0,0
19.10.2017 06:00:00 10,4 9,7 3 2 7 4 NW 1012,6 0,1 0 0,0
19.10.2017 05:00:00 10,8 9,7 1 1 6 3 NNW 1012,4 0,3 0 0,0
19.10.2017 04:00:00 10,8 9,2 3 1 10 5 WNW - - 0 0,0
19.10.2017 03:00:00 10,9 8,7 1 1 5 3 NE 1012,9 20 0 0,0
19.10.2017 02:00:00 11,4 8,7 4 2 8 5 N 1013,3 20 0 -
19.10.2017 01:00:00 12,0 9,0 3 1 9 5 S 1013,2 20 0 0,0
19.10.2017 00:00:00 13,9 8,1 6 4 14 7 SW 1013,4 20 0 0,0
18.10.2017 23:00:00 13,4 9,3 6 3 16 9 NW 1013,4 20 0 0,0
18.10.2017 22:00:00 14,2 9,0 7 4 16 8 S 1013,0 20 0 0,0
18.10.2017 21:00:00 13,5 9,2 4 2 9 5 S 1012,6 20 0 0,0
18.10.2017 20:00:00 14,5 9,3 4 2 19 10 W 1012,3 20 0 -
18.10.2017 19:00:00 15,6 8,4 7 4 24 13 SW 1011,9 20 34 0,0
18.10.2017 18:00:00 16,3 8,3 15 8 30 16 SW 1011,7 20 10 0,0
18.10.2017 17:00:00 15,4 8,8 11 6 28 15 WSW 1011,8 20 31 0,0
18.10.2017 16:00:00 15,8 9,9 14 8 29 15 SW 1012,0 20 56 0,2
18.10.2017 15:00:00 13,8 9,8 14 8 30 16 SW 1013,0 20 6 0,4
18.10.2017 14:00:00 13,0 9,8 9 5 22 12 S 1013,8 20 0 -
18.10.2017 13:00:00 13,9 10,9 13 7 25 13 W 1013,9 10 8 0,4
18.10.2017 12:00:00 14,4 10,8 13 7 23 12 WSW 1013,8 20 2 0,0
18.10.2017 11:00:00 13,2 10,5 11 6 29 16 WSW 1014,2 20 0 0,2
18.10.2017 10:00:00 13,5 10,9 10 6 21 11 SSW 1013,6 20 0 0,2
18.10.2017 09:00:00 13,2 10,5 7 4 16 9 SSW 1013,4 20 0 0,6
18.10.2017 08:00:00 13,7 11,0 9 5 17 9 SW 1013,5 17 0 -
18.10.2017 07:00:00 14,3 12,2 6 4 21 11 SSW 1013,4 10 0 0,8
18.10.2017 06:00:00 14,1 12,1 8 4 26 14 S 1013,2 20 0 0,4
18.10.2017 05:00:00 13,7 11,8 13 7 36 19 SSW 1014,1 14 0 9,6
18.10.2017 04:00:00 16,2 13,2 7 4 18 10 SSE 1013,6 20 0 2,6
18.10.2017 03:00:00 16,2 13,9 4 2 16 8 ESE 1015,0 18 0 0,0
18.10.2017 02:00:00 16,6 13,7 5 3 11 6 S 1016,0 20 0 -
18.10.2017 01:00:00 16,8 13,8 3 1 11 6 S 1016,1 20 0 0,0
18.10.2017 00:00:00 16,9 14,7 4 2 10 6 N 1017,1 4,1 0 0,8
17.10.2017 23:00:00 17,1 14,5 6 3 14 7 WNW 1017,1 12 0 0,8
17.10.2017 22:00:00 17,8 13,4 3 2 14 7 SSE 1016,9 20 0 0,0
17.10.2017 21:00:00 18,1 13,0 5 3 22 12 S 1017,0 20 0 0,0
17.10.2017 20:00:00 18,7 12,6 9 5 27 15 SSE 1017,0 20 0 -
17.10.2017 19:00:00 19,2 12,6 8 5 27 14 S 1017,0 20 15 0,0
17.10.2017 18:00:00 19,0 13,2 10 5 34 18 S 1017,6 20 0 0,0
17.10.2017 17:00:00 18,8 13,3 12 6 32 17 S 1018,2 20 1 0,0
17.10.2017 16:00:00 17,2 12,7 15 8 37 20 SSE 1018,5 20 0 0,0
17.10.2017 15:00:00 17,5 13,9 11 6 26 14 SSE 1019,7 7 0 0,0
17.10.2017 14:00:00 19,7 13,0 5 3 16 9 N 1019,3 19 0 -
17.10.2017 13:00:00 18,9 13,1 7 4 25 14 WSW 1020,2 20 0 0,0
17.10.2017 12:00:00 18,0 12,2 9 5 27 14 S 1020,3 20 11 0,0
17.10.2017 11:00:00 18,9 10,8 8 5 26 14 S 1021,2 20 0 0,0
17.10.2017 10:00:00 20,2 7,3 10 5 25 14 S 1020,5 20 0 0,0
17.10.2017 09:00:00 19,8 7,1 10 5 23 12 SSE 1019,5 20 0 0,0
17.10.2017 08:00:00 20,0 7,0 12 7 24 13 SSE 1019,3 20 0 -
17.10.2017 07:00:00 20,2 8,3 6 3 27 15 SE 1019,0 20 0 0,0
17.10.2017 06:00:00 21,3 5,9 11 6 32 18 SSE 1018,8 20 0 0,0
17.10.2017 05:00:00 21,5 6,5 15 8 30 16 SSE 1018,5 19 0 0,0
17.10.2017 04:00:00 21,7 5,1 4 2 14 7 SSE 1019,3 20 0 0,0
17.10.2017 03:00:00 20,7 3,0 5 3 7 4 E 1020,4 19 0 0,0
17.10.2017 02:00:00 19,6 2,9 5 3 10 6 SE 1020,7 20 0 -
17.10.2017 01:00:00 18,9 2,3 3 2 9 5 N 1021,3 20 0 0,0
17.10.2017 00:00:00 21,9 3,0 3 2 16 9 S 1020,7 20 0 0,0
16.10.2017 23:00:00 24,2 2,9 11 6 19 10 SSW 1020,3 20 0 0,0
16.10.2017 22:00:00 25,1 2,5 10 5 21 12 S 1019,8 20 0 0,0
16.10.2017 21:00:00 26,1 1,3 10 6 17 9 SSW 1019,6 20 0 0,0
16.10.2017 20:00:00 25,6 -1,2 5 3 9 5 S 1019,3 20 0 -
16.10.2017 19:00:00 28,5 -1,7 6 4 18 10 S 1018,8 20 47 0,0
16.10.2017 18:00:00 30,3 -2,2 9 5 24 13 S 1018,5 20 60 0,0
16.10.2017 17:00:00 30,6 -3,3 11 6 26 14 SSW 1018,7 20 60 0,0
16.10.2017 16:00:00 30,5 -2,2 9 5 23 13 S 1019,2 20 60 0,0
16.10.2017 15:00:00 30,0 -2,5 9 5 26 14 S 1019,8 17 60 0,0
16.10.2017 14:00:00 28,9 -1,2 10 5 21 12 SE 1020,9 20 60 -
16.10.2017 13:00:00 27,9 -1,2 9 5 19 10 SSE 1021,6 20 60 0,0
16.10.2017 12:00:00 24,8 1,7 4 2 12 7 NE 1022,6 20 60 0,0
16.10.2017 11:00:00 21,4 1,7 3 1 8 5 NW 1023,3 15 60 0,0
16.10.2017 10:00:00 17,9 1,9 5 3 9 5 E 1023,3 12 60 0,0
16.10.2017 09:00:00 14,5 2,5 3 2 11 6 S 1023,5 15 6 0,0
16.10.2017 08:00:00 14,5 1,7 5 3 - - WSW 1023,0 20 - -
16.10.2017 07:00:00 - - - - - - - - - - -
16.10.2017 06:00:00 - - - - - - - - - - -
16.10.2017 05:00:00 - - - - - - - - - - -
16.10.2017 04:00:00 - - - - - - - - - - -
16.10.2017 03:00:00 - - - - - - - - - - -
16.10.2017 02:00:00 - - - - - - - - - - -
16.10.2017 01:00:00 - - - - - - - - - - -
16.10.2017 00:00:00 25,6 -0,5 13 7 30 16 S 1020,3 20 0 0,0
15.10.2017 23:00:00 26,5 -0,5 13 7 37 20 S 1019,9 20 0 0,0
15.10.2017 22:00:00 27,6 0,4 16 9 32 17 SSW 1019,3 20 0 0,0
15.10.2017 21:00:00 28,6 0,2 14 8 23 13 SSW 1018,8 20 0 0,0
15.10.2017 20:00:00 29,5 -0,7 12 7 23 13 SW 1018,3 20 13 -
15.10.2017 19:00:00 31,6 -0,3 9 5 22 12 SW 1017,7 20 60 0,0
15.10.2017 18:00:00 32,5 0,4 7 4 25 13 S 1017,6 20 60 0,0
15.10.2017 17:00:00 32,9 0,9 9 5 27 15 S 1017,8 20 60 0,0
15.10.2017 16:00:00 32,9 0,9 10 6 22 12 SSW 1018,4 19 60 0,0
15.10.2017 15:00:00 32,1 0,2 9 5 24 13 S 1019,3 20 60 0,0
15.10.2017 14:00:00 31,5 0,9 5 3 21 12 ESE 1020,4 17 60 -
15.10.2017 13:00:00 30,3 2,5 10 5 23 13 SE 1021,5 20 60 0,0
15.10.2017 12:00:00 28,1 3,0 4 2 9 5 NE 1022,4 20 60 0,0

tt = Température de l'air
td = dewpoint
ff = Vitesse du vent
fx = gusts
dd = Direction du vent
ppp = reduced air pressure
vv = visibility
sd = Ensoleillement
rr = Quantités de précipitations

stations d'obs. à proximité